• In Germany
  • List of Countries
  • For 7 days
  • Water Temperature
  • Satellite Maps
  • Weather Map
  • Weather Widgets
  • user-avatar
    Login

    Hourly Weather Brisbane

    Today, 24 July, Monday

    Time Temperature Precipitation Wind Pressure Humidity
    00:00 +13°C° 0 mm 2 mps 763 mmHg 48%
    01:00 +12°C° 0 mm 2 mps 763 mmHg 47%
    02:00 +11°C° 0 mm 3 mps 763 mmHg 47%
    03:00 +11°C° 0 mm 3 mps 763 mmHg 46%
    04:00 +10°C° 0 mm 3 mps 763 mmHg 46%
    05:00 +10°C° 0 mm 3 mps 764 mmHg 45%
    06:00 +10°C° 0 mm 2 mps 764 mmHg 44%
    07:00 +10°C° 0 mm 2 mps 764 mmHg 43%
    08:00 +14°C° 0 mm 2 mps 764 mmHg 38%
    09:00 +17°C° 0 mm 2 mps 764 mmHg 32%
    10:00 +21°C° 0 mm 2 mps 764 mmHg 26%
    11:00 +24°C° 0 mm 2 mps 764 mmHg 24%
    12:00 +26°C° 0 mm 1 mps 764 mmHg 22%
    13:00 +27°C° 0 mm 1 mps 763 mmHg 20%
    14:00 +27°C° 0 mm 1 mps 763 mmHg 23%
    15:00 +26°C° 0 mm 2 mps 763 mmHg 26%
    16:00 +25°C° 0 mm 2 mps 763 mmHg 29%
    17:00 +23°C° 0 mm 2 mps 763 mmHg 35%
    18:00 +20°C° 0 mm 1 mps 764 mmHg 40%
    19:00 +18°C° 0 mm 1 mps 764 mmHg 46%
    20:00 +16°C° 0 mm 1 mps 764 mmHg 48%
    21:00 +15°C° 0 mm 1 mps 765 mmHg 50%
    22:00 +15°C° 0 mm 1 mps 765 mmHg 53%
    23:00 +14°C° 0 mm 1 mps 765 mmHg 53%

    Tomorrow, 25 July, Tuesday

    Time Temperature Precipitation Wind Pressure Humidity
    00:00 +14°C° 0 mm 2 mps 765 mmHg 53%
    01:00 +13°C° 0 mm 2 mps 765 mmHg 54%
    02:00 +13°C° 0 mm 2 mps 765 mmHg 54%
    03:00 +12°C° 0 mm 2 mps 765 mmHg 54%
    04:00 +12°C° 0 mm 2 mps 765 mmHg 54%
    05:00 +12°C° 0 mm 2 mps 765 mmHg 54%
    06:00 +12°C° 0 mm 2 mps 766 mmHg 54%
    07:00 +12°C° 0 mm 2 mps 766 mmHg 54%
    08:00 +15°C° 0 mm 2 mps 766 mmHg 46%
    09:00 +18°C° 0 mm 2 mps 766 mmHg 39%
    10:00 +21°C° 0 mm 2 mps 766 mmHg 32%
    11:00 +23°C° 0 mm 1 mps 766 mmHg 28%
    12:00 +25°C° 0 mm 1 mps 765 mmHg 24%
    13:00 +26°C° 0 mm 1 mps 764 mmHg 21%
    14:00 +26°C° 0 mm 1 mps 764 mmHg 23%
    15:00 +25°C° 0 mm 2 mps 764 mmHg 26%
    16:00 +24°C° 0 mm 2 mps 763 mmHg 29%
    17:00 +21°C° 0 mm 2 mps 764 mmHg 37%
    18:00 +19°C° 0 mm 2 mps 764 mmHg 44%
    19:00 +16°C° 0 mm 2 mps 765 mmHg 52%
    20:00 +16°C° 0 mm 2 mps 765 mmHg 55%
    21:00 +15°C° 0 mm 1 mps 765 mmHg 58%
    22:00 +14°C° 0 mm 1 mps 766 mmHg 60%
    23:00 +14°C° 0 mm 1 mps 765 mmHg 60%

    Day after tomorrow, 26 July, Wednesday

    Time Temperature Precipitation Wind Pressure Humidity
    00:00 +13°C° 0 mm 2 mps 765 mmHg 60%
    01:00 +13°C° 0 mm 2 mps 765 mmHg 60%
    02:00 +12°C° 0 mm 2 mps 765 mmHg 60%
    03:00 +12°C° 0 mm 2 mps 765 mmHg 59%
    04:00 +10°C° 0 mm 2 mps 765 mmHg 59%
    05:00 +10°C° 0 mm 2 mps 765 mmHg 58%
    06:00 +10°C° 0 mm 2 mps 765 mmHg 57%
    07:00 +10°C° 0 mm 2 mps 766 mmHg 57%
    08:00 +14°C° 0 mm 2 mps 766 mmHg 49%
    09:00 +17°C° 0 mm 2 mps 766 mmHg 41%
    10:00 +21°C° 0 mm 2 mps 766 mmHg 33%
    11:00 +23°C° 0 mm 2 mps 765 mmHg 29%
    12:00 +25°C° 0 mm 1 mps 764 mmHg 26%
    13:00 +27°C° 0 mm 1 mps 764 mmHg 22%
    14:00 +27°C° 0 mm 2 mps 763 mmHg 25%
    15:00 +26°C° 0 mm 2 mps 763 mmHg 28%
    16:00 +26°C° 0 mm 2 mps 762 mmHg 30%
    17:00 +24°C° 0 mm 2 mps 763 mmHg 36%
    18:00 +20°C° 0 mm 2 mps 763 mmHg 41%
    19:00 +18°C° 0 mm 2 mps 764 mmHg 47%
    20:00 +17°C° 0 mm 2 mps 764 mmHg 48%
    21:00 +17°C° 0 mm 2 mps 764 mmHg 49%
    22:00 +16°C° 0 mm 2 mps 764 mmHg 49%
    23:00 +16°C° 0 mm 2 mps 764 mmHg 50%

    27 July, Thursday

    Time Temperature Precipitation Wind Pressure Humidity
    00:00 +15°C° 0 mm 2 mps 764 mmHg 51%
    01:00 +15°C° 0 mm 2 mps 764 mmHg 51%
    02:00 +14°C° 0 mm 2 mps 764 mmHg 52%
    03:00 +13°C° 0 mm 3 mps 764 mmHg 53%
    04:00 +13°C° 0 mm 3 mps 764 mmHg 54%
    05:00 +12°C° 0 mm 3 mps 764 mmHg 55%
    06:00 +12°C° 0 mm 3 mps 765 mmHg 57%
    07:00 +12°C° 0 mm 3 mps 765 mmHg 59%
    08:00 +14°C° 0 mm 3 mps 766 mmHg 52%
    09:00 +18°C° 0 mm 2 mps 766 mmHg 45%
    10:00 +21°C° 0 mm 2 mps 766 mmHg 38%
    11:00 +23°C° 0 mm 2 mps 765 mmHg 36%
    12:00 +24°C° 0 mm 2 mps 765 mmHg 33%
    13:00 +25°C° 0 mm 2 mps 764 mmHg 31%
    14:00 +24°C° 0 mm 2 mps 764 mmHg 33%
    15:00 +24°C° 0 mm 3 mps 764 mmHg 36%
    16:00 +22°C° 0 mm 3 mps 764 mmHg 39%
    17:00 +20°C° 0 mm 3 mps 764 mmHg 49%
    18:00 +18°C° 0 mm 3 mps 765 mmHg 59%
    19:00 +16°C° 0 mm 3 mps 766 mmHg 68%
    20:00 +16°C° 0 mm 3 mps 766 mmHg 72%
    21:00 +15°C° 0 mm 2 mps 766 mmHg 75%
    22:00 +15°C° 0 mm 2 mps 767 mmHg 79%
    23:00 +14°C° 0 mm 2 mps 767 mmHg 81%

    28 July, Friday

    Time Temperature Precipitation Wind Pressure Humidity
    00:00 +14°C° 0 mm 2 mps 766 mmHg 83%
    01:00 +13°C° 0 mm 2 mps 766 mmHg 85%
    02:00 +13°C° 0 mm 2 mps 766 mmHg 85%
    03:00 +13°C° 0 mm 2 mps 766 mmHg 86%
    04:00 +12°C° 0 mm 2 mps 766 mmHg 87%
    05:00 +12°C° 0 mm 2 mps 766 mmHg 86%
    06:00 +12°C° 0 mm 2 mps 767 mmHg 85%
    07:00 +12°C° 0 mm 2 mps 767 mmHg 84%
    08:00 +15°C° 0 mm 2 mps 767 mmHg 74%
    09:00 +19°C° 0 mm 1 mps 767 mmHg 64%
    10:00 +22°C° 0 mm 1 mps 767 mmHg 54%
    11:00 +23°C° 0 mm 1 mps 766 mmHg 48%
    12:00 +24°C° 0 mm 1 mps 766 mmHg 42%
    13:00 +25°C° 0 mm 1 mps 765 mmHg 36%
    14:00 +25°C° 0 mm 1 mps 765 mmHg 37%
    15:00 +25°C° 0 mm 2 mps 764 mmHg 39%
    16:00 +24°C° 0 mm 2 mps 764 mmHg 41%
    17:00 +21°C° 0 mm 2 mps 765 mmHg 50%
    18:00 +19°C° 0 mm 2 mps 765 mmHg 60%
    19:00 +17°C° 0 mm 2 mps 766 mmHg 70%
    20:00 +16°C° 0 mm 2 mps 766 mmHg 73%
    21:00 +16°C° 0 mm 2 mps 766 mmHg 76%
    22:00 +15°C° 0 mm 2 mps 766 mmHg 79%
    23:00 +14°C° 0 mm 2 mps 766 mmHg 77%

    29 July, Saturday

    Time Temperature Precipitation Wind Pressure Humidity
    00:00 +14°C° 0 mm 2 mps 766 mmHg 75%
    01:00 +14°C° 0 mm 2 mps 766 mmHg 73%
    02:00 +13°C° 0 mm 2 mps 766 mmHg 68%
    03:00 +13°C° 0 mm 2 mps 765 mmHg 64%
    04:00 +13°C° 0 mm 2 mps 765 mmHg 59%
    05:00 +13°C° 0 mm 2 mps 766 mmHg 57%
    06:00 +13°C° 0 mm 2 mps 766 mmHg 56%
    07:00 +13°C° 0 mm 2 mps 766 mmHg 54%
    08:00 +16°C° 0 mm 1 mps 766 mmHg 47%
    09:00 +21°C° 0 mm 1 mps 766 mmHg 39%
    10:00 +24°C° 0 mm 1 mps 766 mmHg 32%
    11:00 +25°C° 0 mm 1 mps 766 mmHg 30%
    12:00 +26°C° 0 mm 1 mps 765 mmHg 28%
    13:00 +28°C° 0 mm 1 mps 764 mmHg 25%
    14:00 +27°C° 0 mm 2 mps 764 mmHg 29%
    15:00 +26°C° 0 mm 2 mps 764 mmHg 33%
    16:00 +25°C° 0 mm 3 mps 763 mmHg 36%
    17:00 +22°C° 0 mm 3 mps 764 mmHg 46%
    18:00 +20°C° 0 mm 3 mps 764 mmHg 56%
    19:00 +18°C° 0 mm 3 mps 765 mmHg 67%
    20:00 +17°C° 0 mm 3 mps 765 mmHg 71%
    21:00 +16°C° 0 mm 3 mps 765 mmHg 75%
    22:00 +16°C° 0 mm 2 mps 765 mmHg 79%
    23:00 +15°C° 0 mm 2 mps 765 mmHg 80%
    Show more